Regional Weather Roundup
Issued by NWS

Home | Current Version | Previous Version | Graphics & Text | Print | Product List | Glossary On
Versions: 1 2 3 4 5 6 7 8 9 10 11 12 13 14 15 16 17 18 19 20 21 22 23 24 25 26 27 28 29 30 31 32 33 34 35 36 37 38 39 40 41 42 43 44 45 46 47 48 49 50
000
ASUS43 KFSD 280902
RWRSD

WEATHER ROUNDUP FOR SOUTH DAKOTA
NATIONAL WEATHER SERVICE SIOUX FALLS SD
400 AM CDT FRI APR 28 2017

NOTE: "FAIR" INDICATES FEW OR NO CLOUDS BELOW 12,000 FEET WITH NO
SIGNIFICANT WEATHER AND/OR OBSTRUCTIONS TO VISIBILITY.


SDZ001>005-009-010-012>017-281000-
NORTHWEST AND NORTH CENTRAL SOUTH DAKOTA

CITY           SKY/WX    TMP DP  RH WIND       PRES   REMARKS
BUFFALO          N/A     33  26  75 E10       29.75R WCI  25
FAITH            N/A     32  27  81 E12       29.81R WCI  23
MOBRIDGE       CLEAR     34  25  69 E14       29.84R WCI  25
$$

SDZ012>016-024>037-041>051-057-063-072>074-281000-
SOUTHWEST AND SOUTH CENTRAL SOUTH DAKOTA

CITY           SKY/WX    TMP DP  RH WIND       PRES   REMARKS
RAPID CTY ARPT CLOUDY    38  30  73 NE12      29.76R
PIERRE         CLOUDY    29  25  85 NE7       29.81S WCI  22
CUSTER         SNOW      29  26  89 NE13      29.68R VSB 1/2 WCI  19
ELLSWORTH AFB  CLOUDY    38  32  76 NE6       29.76R
PHILIP         CLOUDY    35  31  85 E8        29.79R WCI  29
PINE RIDGE     LGT RAIN  40  39  97 E12       29.69R
SPEARFISH      MIX PCPN  34  32  93 E10       29.76R WCI  26
WINNER         CLOUDY    38  30  73 SE12      29.79R
$$

SDZ004>011-016>023-039-040-281000-
NORTHEAST SOUTH DAKOTA

CITY           SKY/WX    TMP DP  RH WIND       PRES   REMARKS
ABERDEEN       CLEAR     30  27  88 NE6       29.89R WCI  24
WATERTOWN      PTCLDY    29  26  89 CALM      29.86R
BROOKINGS      CLEAR     25  24  96 NE3       29.85S
SISSETON         N/A     30  27  88 N10       29.87R WCI  21
$$

SDZ017-020-022-023-036>040-048>070-281000-
SOUTHEAST SOUTH DAKOTA

CITY           SKY/WX    TMP DP  RH WIND       PRES   REMARKS
SIOUX FALLS    CLEAR     28  27  96 N3        29.83F
HURON          CLEAR     26  24  92 NE6       29.85S WCI  19
CHAMBERLAIN    PTCLDY    33  30  89 NE3       29.81S
MITCHELL       CLOUDY    31  27  85 S3        29.83F
YANKTON        CLEAR     34  27  75 E5        29.83S WCI  30
$$

ABBREVIATIONS USED IN REMARKS
   TC - TEMPERATURE IN CELSIUS
  WCI - WIND CHILL INDEX
   HX - HEAT INDEX
  VSB - VISIBILITY





USA.gov is the U.S. government's official web portal to all federal, state and local government web resources and services.